This is the latest recevied weather packets stored in our database for station/object TA3MHA. If no packets are shown the sender has not sent any weather packets the latest 10 day(s).
| Time | Temp. | Humidity | Pressure | Rain* | Wind** | Luminosity | Snow |
|---|---|---|---|---|---|---|---|
| 1776959700 | 11.67° C | 59% | - | 0 mm | - | 74 W/m² | - |
| 1776959401 | 11.67° C | 58% | - | 0 mm | - | 83 W/m² | - |
| 1776959101 | 11.67° C | 59% | - | 0 mm | - | 92 W/m² | - |
| 1776958801 | 11.67° C | 58% | - | 0 mm | - | 102 W/m² | - |
| 1776958501 | 12.22° C | 57% | - | 0 mm | - | 61 W/m² | - |
| 1776958201 | 11.67° C | 59% | - | 0 mm | - | 132 W/m² | - |
| 1776957901 | 11.67° C | 62% | - | 0 mm | - | 142 W/m² | - |
| 1776957601 | 12.22° C | 60% | - | 0 mm | - | 90 W/m² | - |
| 1776957301 | 12.22° C | 59% | - | 0 mm | - | 91 W/m² | - |
| 1776957001 | 12.78° C | 59% | - | 0 mm | - | 127 W/m² | - |
| 1776956701 | 12.22° C | 59% | - | 0 mm | - | 273 W/m² | - |
| 1776956400 | 11.67° C | 61% | - | 0 mm | - | 303 W/m² | - |
| 1776956100 | 11.67° C | 62% | - | 0 mm | - | 143 W/m² | - |
| 1776955800 | 11.67° C | 62% | - | 0 mm | - | 152 W/m² | - |
| 1776955500 | 12.22° C | 62% | - | 0 mm | - | 136 W/m² | - |
| 1776955201 | 12.22° C | 62% | - | 0 mm | - | 148 W/m² | - |
| 1776954901 | 12.22° C | 63% | - | 0 mm | - | 172 W/m² | - |
| 1776954600 | 11.67° C | 62% | - | 0 mm | - | 147 W/m² | - |
| 1776954301 | 12.22° C | 61% | - | 0 mm | - | 129 W/m² | - |
| 1776954000 | 11.67° C | 61% | - | 0 mm | - | 152 W/m² | - |
| 1776953701 | 12.22° C | 60% | - | 0 mm | - | 148 W/m² | - |
| 1776953400 | 12.22° C | 59% | - | 0 mm | - | 144 W/m² | - |
| 1776953100 | 12.22° C | 61% | - | 0 mm | - | 160 W/m² | - |
| 1776952801 | 12.22° C | 59% | - | 0 mm | - | 215 W/m² | - |
| 1776952500 | 12.22° C | 59% | - | 0 mm | - | 240 W/m² | - |
* Rain latest hour (hover to see other rain measurements)
** Current wind speed in m/s (hover to see current wind gust speed)